"","ID","Lat","Lon","Year","Miss Tmax","Miss Tmin","Miss Prcp","Avg Temp","Avg Tmax","Avg Tmin","ToT Prcp","Max Tmax","Min Tmax","Max Tmin","Min Tmin","Warm Days","Warm Nights","Cold Days","Cold Nights","Max 1-day P","Max 5-day P","Wet Days"
"1887-12-31","USW00024213",40.8097,-124.1603,1887,0,0,30,50.33,56.13,44.53,34.55,82,40,55,27,3.84,0.55,11.51,19.45,2.67,4.86,18.99
"1888-12-31","USW00024213",40.8097,-124.1603,1888,0,0,30,53.06,58.7,47.42,35.43,77,36,59,20,16.16,9.59,8.22,11.78,3.91,8.33,19.26
"1889-12-31","USW00024213",40.8097,-124.1603,1889,0,0,30,52.82,59.05,46.59,45.28,77,46,59,28,12.33,4.93,5.48,13.7,2.43,4.23,27.63
"1890-12-31","USW00024213",40.8097,-124.1603,1890,0,0,0,50.66,56.1,45.22,54.74,78,40,56,27,4.38,1.37,15.34,21.64,4.81,10.02,38.53
"1891-12-31","USW00024213",40.8097,-124.1603,1891,0,0,0,52.27,57.91,46.64,45.79,75,45,62,30,12.05,8.77,9.86,14.25,2.22,3.84,20.67
"1892-12-31","USW00024213",40.8097,-124.1603,1892,0,0,30,51.5,56.96,46.04,33.94,69,46,57,31,6.85,4.11,8.77,15.07,2.34,4.8,18.3
"1893-12-31","USW00024213",40.8097,-124.1603,1893,0,0,0,50.63,56.01,45.26,49.54,69,41,56,29,3.29,3.01,14.52,17.81,3.7,7.74,26.11
"1894-12-31","USW00024213",40.8097,-124.1603,1894,0,0,4,50.69,56.2,45.18,49.59,79,41,63,28,5.21,2.47,18.36,17.81,2.68,5.83,27.14
"1895-12-31","USW00024213",40.8097,-124.1603,1895,0,0,0,50.89,56.99,44.78,41.52,76,44,54,30,6.03,0,10.14,19.18,2.44,4.28,23.38
"1896-12-31","USW00024213",40.8097,-124.1603,1896,0,0,0,52.36,58.64,46.07,55.37,72,43,62,27,12.6,6.85,7.12,16.71,2.67,5.05,35.11
"1897-12-31","USW00024213",40.8097,-124.1603,1897,0,0,0,51.66,57.69,45.64,43.31,84,44,58,30,7.95,2.19,7.95,17.53,2.11,5.72,21.4
"1898-12-31","USW00024213",40.8097,-124.1603,1898,0,0,0,50.81,56.02,45.6,29.95,75,42,59,30,3.84,4.66,15.62,19.18,1.82,3,9.65
"1899-12-31","USW00024213",40.8097,-124.1603,1899,0,0,0,50.96,55.8,46.12,51.88,76,37,58,24,3.56,3.84,13.7,13.42,3.17,7.76,31.16
"1900-12-31","USW00024213",40.8097,-124.1603,1900,0,0,0,53.25,58.07,48.44,44.93,72,46,57,34,7.95,10.96,4.11,4.93,2.67,5.56,26.45
"1901-12-31","USW00024213",40.8097,-124.1603,1901,0,0,0,51.83,56.68,46.97,42.04,76,44,58,31,5.48,5.21,10.41,12.88,2.4,5.95,26.13
"1902-12-31","USW00024213",40.8097,-124.1603,1902,0,0,0,52.59,57.55,47.64,58.76,77,44,59,29,7.67,8.22,6.85,9.59,3.61,7.73,35.57
"1903-12-31","USW00024213",40.8097,-124.1603,1903,0,0,0,51.86,56.77,46.95,47.9,85,43,60,28,6.03,4.38,8.77,13.97,4.96,8.95,31.26
"1904-12-31","USW00024213",40.8097,-124.1603,1904,0,0,0,51.92,56.84,46.99,64.47,81,43,62,32,7.12,2.47,9.59,12.05,3.65,6.25,39.8
"1905-12-31","USW00024213",40.8097,-124.1603,1905,0,0,0,52.8,57.77,47.82,26.25,77,41,58,31,6.58,7.95,6.03,10.41,1.74,4.04,12.08
"1906-12-31","USW00024213",40.8097,-124.1603,1906,0,0,0,52.41,57.5,47.32,41.06,77,45,57,31,7.67,3.29,7.4,9.32,1.67,4.43,20.85
"1907-12-31","USW00024213",40.8097,-124.1603,1907,0,0,0,52.31,56.7,47.92,54.11,70,40,56,33,3.56,3.84,8.49,10.96,3.36,7.14,37.92
"1908-12-31","USW00024213",40.8097,-124.1603,1908,0,0,0,50.68,56.23,45.13,33.4,72,47,56,30,6.03,0.55,9.86,13.7,2.79,4.24,16.84
"1909-12-31","USW00024213",40.8097,-124.1603,1909,0,0,0,50.96,55.96,45.96,51.64,77,42,59,29,3.84,2.47,12.33,14.25,2.6,7.55,31.39
"1910-12-31","USW00024213",40.8097,-124.1603,1910,0,0,0,50.95,55.86,46.05,29.64,74,44,56,28,4.93,0.27,12.05,11.23,2.33,3.23,14.89
"1911-12-31","USW00024213",40.8097,-124.1603,1911,0,0,0,49.86,55.03,44.69,29.85,73,42,56,30,3.56,0.55,17.81,21.1,1.67,3.45,13.77
"1912-12-31","USW00024213",40.8097,-124.1603,1912,0,0,0,51.62,56.86,46.38,46.55,71,45,56,30,7.12,3.84,9.86,11.23,3.76,6.57,26.85
"1913-12-31","USW00024213",40.8097,-124.1603,1913,0,0,0,51.17,56.62,45.72,33.8,78,41,60,28,9.32,7.67,18.36,19.45,2.22,4.97,14.63
"1914-12-31","USW00024213",40.8097,-124.1603,1914,0,0,0,51.61,56.97,46.25,37.91,78,44,62,32,6.58,1.64,8.77,12.6,2.26,4.29,18.94
"1915-12-31","USW00024213",40.8097,-124.1603,1915,0,0,0,52.42,57.81,47.04,39.79,72,44,60,28,6.85,4.93,4.66,10.14,4.45,7.4,21.83
"1916-12-31","USW00024213",40.8097,-124.1603,1916,0,0,0,50.36,55.7,45.01,38.4,75,39,57,31,5.21,3.84,17.53,19.73,1.66,3.78,17.12
"1917-12-31","USW00024213",40.8097,-124.1603,1917,0,0,0,50.25,55.79,44.71,28.72,82,42,59,27,6.85,2.47,18.63,24.11,1.76,4.03,14.69
"1918-12-31","USW00024213",40.8097,-124.1603,1918,0,0,0,51.58,57.24,45.91,28.02,79,45,57,28,7.67,3.56,6.58,16.99,1.53,2.87,12.76
"1919-12-31","USW00024213",40.8097,-124.1603,1919,0,0,0,51.11,56.62,45.6,37.02,73,40,56,26,8.22,4.38,10.41,15.34,2.24,5.44,13.76
"1920-12-31","USW00024213",40.8097,-124.1603,1920,0,0,0,51.41,56.99,45.83,39.23,74,44,58,32,9.32,4.38,9.59,16.44,1.97,3.9,19.61
"1921-12-31","USW00024213",40.8097,-124.1603,1921,0,0,0,51.66,56.81,46.51,36.93,77,45,57,29,7.12,3.01,10.68,11.51,3.22,3.38,19.04
"1922-12-31","USW00024213",40.8097,-124.1603,1922,0,0,0,50.61,55.97,45.24,36.92,75,40,56,25,5.48,3.01,20,21.1,2.05,5.47,18.68
"1923-12-31","USW00024213",40.8097,-124.1603,1923,0,0,0,52.1,57.73,46.48,22.39,74,43,61,27,13.97,10.41,14.52,16.71,1.44,2.12,6.23
"1924-12-31","USW00024213",40.8097,-124.1603,1924,0,0,0,51.53,57.17,45.89,27.53,81,39,61,24,6.58,2.74,6.85,14.25,3.27,4.5,13.28
"1925-12-31","USW00024213",40.8097,-124.1603,1925,0,0,0,52.72,58.08,47.35,36.07,80,47,56,33,6.85,3.29,5.21,7.4,2.3,4.29,13.63
"1926-12-31","USW00024213",40.8097,-124.1603,1926,0,0,0,54.07,59.62,48.52,38.06,75,45,60,29,11.78,9.86,2.47,6.03,4.05,8.45,18.84
"1927-12-31","USW00024213",40.8097,-124.1603,1927,0,0,0,52.12,57.64,46.61,37.03,75,45,59,30,8.77,4.38,6.03,13.97,2.35,5.37,15.68
"1928-12-31","USW00024213",40.8097,-124.1603,1928,2,2,2,52.4,57.98,46.82,35.07,82,47,59,30,6.03,3.29,4.93,8.22,2.44,4.04,17.68
"1929-12-31","USW00024213",40.8097,-124.1603,1929,0,0,0,51.36,57.06,45.66,21.17,77,44,59,29,7.4,6.03,14.79,19.18,1.58,3.61,8.12
"1930-12-31","USW00024213",40.8097,-124.1603,1930,0,0,0,52.42,58.08,46.76,24.21,85,41,59,27,9.59,7.4,6.58,12.05,1.46,2.92,9.8
"1931-12-31","USW00024213",40.8097,-124.1603,1931,0,0,0,52.52,58.26,46.77,30.91,76,45,57,30,6.03,4.11,3.01,13.15,1.68,4.15,14.06
"1932-12-31","USW00024213",40.8097,-124.1603,1932,0,0,0,51.17,56.51,45.83,31.12,71,38,60,22,4.93,2.74,15.34,14.52,1.97,3.69,12.48
"1933-12-31","USW00024213",40.8097,-124.1603,1933,1,1,1,50.87,56.09,45.65,32.38,76,45,56,28,4.38,1.1,16.16,16.16,1.53,3.04,13.4
"1934-12-31","USW00024213",40.8097,-124.1603,1934,0,0,0,54.22,59.63,48.81,31.32,74,49,59,36,12.33,9.04,1.37,4.38,2.46,4,16.56
"1935-12-31","USW00024213",40.8097,-124.1603,1935,0,0,0,51.48,57.13,45.83,33.36,77,41,56,29,7.12,1.1,10.68,16.71,2.95,3.82,15.53
"1936-12-31","USW00024213",40.8097,-124.1603,1936,0,0,0,52.83,58.49,47.17,26.8,83,44,61,33,13.15,8.49,9.04,11.78,1.56,5.06,13.02
"1937-12-31","USW00024213",40.8097,-124.1603,1937,0,0,0,52.31,57.85,46.78,45.46,76,39,59,25,12.05,5.75,12.33,14.79,2.28,5.29,25.1
"1938-12-31","USW00024213",40.8097,-124.1603,1938,0,0,0,52.08,57.33,46.82,50.91,72,46,56,32,6.58,3.01,7.67,9.04,2.75,6.3,32.04
"1939-12-31","USW00024213",40.8097,-124.1603,1939,0,0,0,52.28,57.68,46.88,31.91,85,39,60,31,10.14,4.11,10.68,10.41,3.77,7.28,16.29
"1940-12-31","USW00024213",40.8097,-124.1603,1940,0,0,0,54.28,59.82,48.74,41.23,79,48,60,30,15.89,12.88,1.37,7.4,2.08,5.18,24.61
"1941-12-31","USW00024213",40.8097,-124.1603,1941,0,0,0,54.67,60.12,49.22,52.12,83,45,60,34,15.62,15.62,1.37,3.29,1.94,6.45,30.79
"1942-12-31","USW00024213",40.8097,-124.1603,1942,0,0,0,52.98,58.24,47.71,40.64,74,46,60,28,9.86,10.14,3.84,9.59,1.75,4.69,19.93
"1943-12-31","USW00024213",40.8097,-124.1603,1943,0,0,0,53.03,58.44,47.62,32.65,78,43,58,26,9.04,7.67,4.11,10.14,2.15,4.53,17.91
"1944-12-31","USW00024213",40.8097,-124.1603,1944,0,0,0,52.08,57.25,46.92,36.02,77,47,62,33,6.58,3.29,7.12,10.14,2.31,4.83,18.38
"1945-12-31","USW00024213",40.8097,-124.1603,1945,0,0,0,51.91,57.32,46.49,48.89,85,47,58,31,6.58,2.19,6.85,12.33,4.2,4.8,27.78
"1946-12-31","USW00024213",40.8097,-124.1603,1946,0,0,0,51.72,57.47,45.98,24.71,76,45,58,32,8.77,6.58,7.95,18.36,1.88,3.67,11.2
"1947-12-31","USW00024213",40.8097,-124.1603,1947,0,0,0,53.28,58.95,47.6,25.96,80,43,61,30,18.63,14.25,7.95,12.88,1.97,2.1,10.12
"1948-12-31","USW00024213",40.8097,-124.1603,1948,0,0,0,50.94,56.59,45.3,45.01,73,44,59,28,6.85,5.48,13.7,24.93,2.2,6.21,23.35
"1949-12-31","USW00024213",40.8097,-124.1603,1949,0,0,0,51.26,56.92,45.59,28.12,78,41,59,27,9.86,5.75,13.97,19.73,2.26,4.35,15.38
"1950-12-31","USW00024213",40.8097,-124.1603,1950,0,0,0,52.16,57.41,46.91,53.3,77,38,58,26,9.86,5.48,10.41,12.05,5.04,10.12,32.85
"1951-12-31","USW00024213",40.8097,-124.1603,1951,0,0,0,51.32,56.23,46.41,45.04,71,43,60,28,3.84,1.92,14.25,14.79,2.85,4.74,28.38
"1952-12-31","USW00024213",40.8097,-124.1603,1952,0,0,0,51,56.14,45.85,41.12,78,42,57,30,6.03,1.92,13.97,16.99,2.73,6.52,21.96
"1953-12-31","USW00024213",40.8097,-124.1603,1953,0,0,0,52.4,57.73,47.07,50.32,77,45,59,33,10.68,9.59,6.85,10.68,3.7,7.35,28.51
"1954-12-31","USW00024213",40.8097,-124.1603,1954,0,0,0,52.02,57.41,46.64,42.7,76,44,58,30,7.67,5.75,8.49,11.23,3,4.21,22.69
"1955-12-31","USW00024213",40.8097,-124.1603,1955,0,0,0,50.05,55.19,44.9,36.51,69,42,59,30,2.47,1.1,18.63,20.55,2.27,4.66,19.66
"1956-12-31","USW00024213",40.8097,-124.1603,1956,0,0,0,51.36,56.82,45.91,38.47,77,43,59,30,6.03,3.01,12.6,18.36,1.65,5.03,21.77
"1957-12-31","USW00024213",40.8097,-124.1603,1957,0,0,0,53.03,58.39,47.67,40.89,73,40,62,28,10.68,11.78,10.14,14.25,1.88,3.46,21.49
"1958-12-31","USW00024213",40.8097,-124.1603,1958,0,0,0,54.31,59.7,48.93,40.87,85,47,60,32,15.34,18.36,2.47,7.4,1.75,4.8,22.84
"1959-12-31","USW00024213",40.8097,-124.1603,1959,0,0,0,52.43,57.97,46.89,29.14,73,44,59,33,8.77,5.48,4.66,11.23,4.84,7.64,15.73
"1960-12-31","USW00024213",40.8097,-124.1603,1960,0,0,0,51.97,57.28,46.66,44.78,77,43,60,30,5.75,2.47,6.58,11.51,2.16,5.11,27.66
"1961-12-31","USW00024213",40.8097,-124.1603,1961,0,0,0,52.19,57.4,46.97,40.16,73,44,58,30,5.21,6.03,6.85,12.05,2.01,4.9,17.99
"1962-12-31","USW00024213",40.8097,-124.1603,1962,0,0,0,51.84,56.95,46.74,35.18,70,40,58,27,8.49,5.48,9.86,9.04,2.67,5.23,19.46
"1963-12-31","USW00024213",40.8097,-124.1603,1963,0,0,0,53.47,58.81,48.13,41.85,77,46,60,30,10.68,10.14,7.12,10.41,2.32,5.33,20.37
"1964-12-31","USW00024213",40.8097,-124.1603,1964,0,0,0,51.14,56.33,45.95,47.04,83,42,59,30,4.66,3.84,15.62,17.26,2.46,5.83,26.28
"1965-12-31","USW00024213",40.8097,-124.1603,1965,0,0,0,51.54,56.59,46.49,26.28,80,45,60,29,8.49,6.85,14.52,12.88,1.73,3.47,11.21
"1966-12-31","USW00024213",40.8097,-124.1603,1966,0,0,0,52.03,57.41,46.65,40.31,78,43,58,31,7.4,6.58,8.22,12.05,2.59,5.92,22.29
"1967-12-31","USW00024213",40.8097,-124.1603,1967,0,0,0,51.83,57.31,46.35,37.12,74,44,57,30,12.6,4.66,12.88,18.63,1.93,3.87,18.09
"1968-12-31","USW00024213",40.8097,-124.1603,1968,0,0,0,52.56,57.92,47.2,35.64,82,40,61,29,12.88,7.95,9.86,11.51,2.22,3.61,17.59
"1969-12-31","USW00024213",40.8097,-124.1603,1969,0,0,0,52.01,57.42,46.6,44.57,76,42,58,29,10.41,2.47,11.23,13.97,3.1,4.75,27.56
"1970-12-31","USW00024213",40.8097,-124.1603,1970,0,0,0,52.2,57.67,46.73,47.39,81,47,59,31,7.67,1.92,4.38,9.86,2.46,6.4,31.05
"1971-12-31","USW00024213",40.8097,-124.1603,1971,0,0,0,50.74,55.86,45.61,38.76,74,43,60,31,9.32,7.12,18.9,17.53,1.87,3.72,17.38
"1972-12-31","USW00024213",40.8097,-124.1603,1972,0,0,0,51.92,57.17,46.67,39.17,75,34,58,21,7.4,8.22,11.23,13.42,2.49,5.8,19.37
"1973-12-31","USW00024213",40.8097,-124.1603,1973,0,0,0,52.05,57.24,46.85,49.02,76,46,60,31,6.3,4.11,4.38,9.04,1.82,4.65,26.48
"1974-12-31","USW00024213",40.8097,-124.1603,1974,0,0,0,51.83,57.13,46.52,34.22,75,43,59,31,7.4,8.49,10.14,11.78,2.43,4.98,18.72
"1975-12-31","USW00024213",40.8097,-124.1603,1975,0,0,0,50.84,56.04,45.63,46.09,76,45,57,31,4.66,1.64,15.89,18.36,2.93,6.08,25.23
"1976-12-31","USW00024213",40.8097,-124.1603,1976,0,0,0,51.4,57.23,45.57,21.71,76,46,59,30,8.49,3.84,10.68,17.26,1.48,3.56,9.29
"1977-12-31","USW00024213",40.8097,-124.1603,1977,0,0,0,52.1,57.99,46.21,29.29,75,46,60,30,9.32,4.93,4.11,13.7,1.46,2.58,11.81
"1978-12-31","USW00024213",40.8097,-124.1603,1978,0,0,0,52.71,58.61,46.81,25.65,79,43,58,27,12.6,3.84,6.58,11.78,1.24,3.02,10.05
"1979-12-31","USW00024213",40.8097,-124.1603,1979,0,0,0,53.64,59.66,47.62,35.69,85,45,62,28,21.37,13.7,4.38,11.51,1.73,3.28,12.91
"1980-12-31","USW00024213",40.8097,-124.1603,1980,0,0,0,52.96,58.72,47.2,30.48,80,43,63,29,10.41,4.38,2.74,8.77,3.17,4.84,11.79
"1981-12-31","USW00024213",40.8097,-124.1603,1981,0,0,0,53.8,59.62,47.97,43.29,75,46,63,35,10.41,6.03,1.1,6.03,3.36,4.63,24.37
"1982-12-31","USW00024213",40.8097,-124.1603,1982,0,0,0,53.17,60.3,46.04,48.14,81,43,61,30,24.11,6.58,5.21,20,2.84,5.17,27.95
"1983-12-31","USW00024213",40.8097,-124.1603,1983,0,0,0,55.62,62.3,48.95,67.21,86,40,59,32,35.34,19.18,1.37,6.3,2.78,5.32,40.44
"1984-12-31","USW00024213",40.8097,-124.1603,1984,0,0,0,53.69,60.55,46.82,40.7,80,45,58,31,21.92,8.22,1.1,10.14,1.94,5.51,20.22
"1985-12-31","USW00024213",40.8097,-124.1603,1985,0,0,0,52.37,58.94,45.8,23.07,81,44,57,31,18.36,3.84,6.85,17.26,1.99,3.84,7.86
"1986-12-31","USW00024213",40.8097,-124.1603,1986,0,0,0,54.64,61.19,48.09,37.55,79,50,58,34,23.01,4.11,0.27,4.66,1.83,5.67,18.02
"1987-12-31","USW00024213",40.8097,-124.1603,1987,0,0,0,54.92,60.96,48.88,34.26,84,48,60,30,20.27,15.34,2.19,10.41,1.96,5.27,17.86
"1988-12-31","USW00024213",40.8097,-124.1603,1988,0,0,0,53.82,59.79,47.85,31.6,82,45,58,30,14.52,4.93,3.29,8.22,1.97,3.2,14.55
"1989-12-31","USW00024213",40.8097,-124.1603,1989,0,0,0,53.64,59.5,47.79,25.47,80,41,58,27,17.53,12.33,7.4,12.6,1.26,2.46,8.72
"1990-12-31","USW00024213",40.8097,-124.1603,1990,0,0,0,53.14,59.1,47.19,29.3,76,34,61,22,23.01,18.08,10.41,18.36,1.41,3.19,10.71
"1991-12-31","USW00024213",40.8097,-124.1603,1991,0,0,0,52.95,58.94,46.97,23.15,82,47,62,32,12.33,8.77,4.66,12.33,1.02,2.52,8.93
"1992-12-31","USW00024213",40.8097,-124.1603,1992,0,0,0,55.26,61.47,49.05,29.26,80,45,60,34,26.03,15.34,2.19,8.49,1.74,3.99,14.85
"1993-12-31","USW00024213",40.8097,-124.1603,1993,0,0,0,54,60.19,47.81,39.38,87,44,59,31,18.9,11.23,4.93,12.6,2.74,5.08,16.68
"1994-12-31","USW00024213",40.8097,-124.1603,1994,0,0,0,53.36,59.55,47.18,35.27,72,47,60,29,19.73,11.23,3.84,15.34,2.15,3.66,19.23
"1995-12-31","USW00024213",40.8097,-124.1603,1995,0,0,0,54.58,61.01,48.15,51.19,76,49,59,30,25.75,13.97,1.1,10.41,2.81,5.49,29.16
"1996-12-31","USW00024213",40.8097,-124.1603,1996,0,0,0,53.53,60.31,46.74,60.61,82,46,58,30,17.81,5.21,3.56,11.78,4.86,8.95,36.43
"1997-12-31","USW00024213",40.8097,-124.1603,1997,0,0,0,54.37,61.57,47.17,37.04,77,47,62,27,34.79,15.34,1.37,18.08,2.68,7.19,17.74
"1998-12-31","USW00024213",40.8097,-124.1603,1998,0,0,0,53.27,59.5,47.04,63.68,77,41,58,23,12.6,5.75,3.84,12.05,4.37,6.98,41.04
"1999-12-31","USW00024213",40.8097,-124.1603,1999,0,0,0,51.75,58.28,45.21,39.56,73,42,62,29,12.33,6.85,7.12,21.1,2.41,3.5,21.12
"2000-12-31","USW00024213",40.8097,-124.1603,2000,0,0,0,53.33,60.3,46.37,33.13,75,47,57,32,21.37,7.4,0.82,16.71,1.89,4.31,15.14
"2001-12-31","USW00024213",40.8097,-124.1603,2001,0,0,0,52.64,59.63,45.66,34.74,77,46,60,29,15.07,3.84,3.01,18.63,2.01,4.23,14.8
"2002-12-31","USW00024213",40.8097,-124.1603,2002,0,0,0,52.5,59.44,45.57,45.83,76,45,57,26,16.16,4.11,4.38,19.18,6.79,11.11,30.34
"2003-12-31","USW00024213",40.8097,-124.1603,2003,0,0,0,54.15,61.04,47.26,45.83,82,47,60,30,25.75,9.32,1.64,12.05,1.77,4.32,25.07
"2004-12-31","USW00024213",40.8097,-124.1603,2004,0,0,0,54.12,60.9,47.34,38.08,78,46,59,30,27.67,13.97,2.47,12.33,1.89,4.6,24.64
"2005-12-31","USW00024213",40.8097,-124.1603,2005,0,0,0,53.38,59.76,47.01,50.08,74,44,58,31,15.34,5.48,4.11,13.15,1.93,4.9,31.26
"2006-12-31","USW00024213",40.8097,-124.1603,2006,0,0,0,52.5,59.13,45.87,50.21,82,44,58,29,14.79,5.21,4.93,17.53,2.04,4.49,29.14
"2007-12-31","USW00024213",40.8097,-124.1603,2007,0,0,0,52.34,58.93,45.75,36.47,74,45,62,25,18.9,11.51,10.41,18.9,2.32,5,17.91
"2008-12-31","USW00024213",40.8097,-124.1603,2008,0,0,0,51.37,57.68,45.06,30.17,83,42,59,27,13.15,4.93,11.23,23.01,1.42,3.92,12.38
"2009-12-31","USW00024213",40.8097,-124.1603,2009,0,0,0,52.47,59.31,45.63,28.95,78,45,58,26,18.9,7.4,5.21,22.19,1.74,2.9,12.26
"2010-12-31","USW00024213",40.8097,-124.1603,2010,0,0,0,52.62,58.86,46.39,53.74,76,47,59,30,7.95,2.47,3.29,12.05,2.05,3.79,28.08
"2011-12-31","USW00024213",40.8097,-124.1603,2011,0,0,0,51.67,58.08,45.27,35.39,70,44,58,28,10.96,4.11,8.77,23.84,1.46,3.87,16.98
"2012-12-31","USW00024213",40.8097,-124.1603,2012,0,0,0,51.66,57.83,45.49,50.77,74,45,56,30,6.85,2.47,7.67,20.55,2.26,5.77,32.34
"2013-12-31","USW00024213",40.8097,-124.1603,2013,0,0,0,51.48,58.28,44.68,16.6,80,41,60,24,18.08,8.49,12.05,27.12,1.38,2.35,5.04
"2014-12-31","USW00024213",40.8097,-124.1603,2014,0,0,0,54.81,61.29,48.33,37.5,80,47,62,30,25.75,15.89,1.64,11.23,2.59,3.43,18.34
"2015-12-31","USW00024213",40.8097,-124.1603,2015,0,0,0,54.48,60.98,47.99,33.84,77,47,61,30,25.21,15.62,2.47,10.96,2.2,5.71,20.55
"2016-12-31","USW00024213",40.8097,-124.1603,2016,0,0,0,54.08,60.61,47.55,53.13,78,44,57,29,18.08,3.56,1.92,10.68,2.31,5.91,33.57
"2017-12-31","USW00024213",40.8097,-124.1603,2017,0,0,0,53.17,59.73,46.62,49.05,87,43,61,28,16.44,10.68,4.93,17.53,1.6,4.63,24.52
"2018-12-31","USW00024213",40.8097,-124.1603,2018,0,0,0,52.61,59.19,46.03,36.75,73,44.1,57,29.1,11.78,6.58,3.01,18.36,1.69,4.1,19.18
"2019-12-31","USW00024213",40.8097,-124.1603,2019,0,0,0,53.31,59.98,46.65,44,84.9,44.1,59,29.1,25.21,14.79,6.03,18.63,2.56,6.98,27.6
"2020-12-31","USW00024213",40.8097,-124.1603,2020,0,0,0,52.99,59.83,46.15,26.54,87.1,46.9,60.1,29.1,19.45,5.75,3.29,21.92,1.38,2.44,11.84
"2021-12-31","USW00024213",40.8097,-124.1603,2021,0,0,0,51.88,58.32,45.44,32.97,77,44.1,57,31.1,12.05,4.38,6.3,19.45,1.76,3.39,14.1
